Regional Weather Roundup
Issued by NWS

Home | Current Version | Previous Version | Text Only | Print | Product List | Glossary On
Versions: 1 2 3 4 5 6 7 8 9 10 11 12 13 14 15 16 17 18 19 20 21 22 23 24 25 26 27 28 29 30 31 32 33 34 35 36 37 38 39 40 41 42 43 44 45 46 47 48 49 50
000
ASUS43 KDMX 272206
RWRIA

WEATHER ROUNDUP FOR IOWA
NATIONAL WEATHER SERVICE DES MOINES IA
500 PM CDT SUN MAY 27 2018

NOTE: "FAIR" INDICATES FEW OR NO CLOUDS BELOW 12,000 FEET WITH NO
SIGNIFICANT WEATHER AND/OR OBSTRUCTIONS TO VISIBILITY.

* - THESE STATIONS ARE NOT NWS STATIONS...THUS NOT UNDER NWS
QUALITY CONTROL.  THEY ALSO DO NOT REPORT WEATHER SUCH
AS PRECIPITATION OR FOG.

IAZ001>003-012>014-020>022-031>034-043>046-272300-
   NORTHWEST IOWA

CITY           SKY/WX    TMP DP  RH WIND       PRES   REMARKS
CARROLL *      SUNNY    100  52  19 SW9       29.81F HX  98
CHEROKEE *     CLOUDY    95  59  29 S9        29.81F HX  94
DENISON *      SUNNY     97  59  28 VRB5G15   29.84S HX  96
LE MARS *      MOSUNNY  102  54  19 SW12G20   29.79F HX 100
ORANGE CITY *  SUNNY     99  54  22 S15       29.81S HX  96
SHELDON *      MOSUNNY  100  50  18 SW17      29.78F HX  97
SIOUX CITY     MOSUNNY  101  58  24 SW10      29.79F HX 100
SPENCER        MOSUNNY   99  60  27 CALM      29.80F THUNDER HX  99
STORM LAKE *   CLOUDY    97  55  24 S5G16     29.82F HX  95
$$

IAZ055>058-069>071-079>083-090>094-272300-
   SOUTHWEST IOWA

CITY           SKY/WX    TMP DP  RH WIND       PRES   REMARKS
ATLANTIC *     SUNNY     99  59  26 SW10      29.82S HX  98
AUDUBON *      SUNNY     99  52  20 CALM      29.84F HX  96
CLARINDA *     SUNNY     97  61  30 S7        29.84S HX  97
COUNCIL BLFS * MOSUNNY   97  61  30 S8        29.82F HX  97
CRESTON *      SUNNY     99  57  25 CALM      29.86S HX  97
HARLAN  *      SUNNY     99  57  25 S10       29.86S HX  97
LAMONI         SUNNY     97  69  40 CALM      29.84F HX 103
RED OAK *      SUNNY     95  61  31 SW7G14    29.82S HX  95
SHENANDOAH *   SUNNY     99  55  23 CALM      29.82F HX  97
$$

IAZ047>049-059>061-072>074-084-272300-
   CENTRAL IOWA

CITY           SKY/WX    TMP DP  RH WIND       PRES   REMARKS
AMES           CLOUDY    97  62  31 SE5       29.81F HX  98
ANKENY *       CLOUDY    97  63  32 CALM      29.83S HX  98
BOONE *        CLOUDY    99  61  28 VRB5      29.81S HX  99
CHARITON *     SUNNY     95  66  38 NE6       29.84S HX  98
DES MOINES     CLOUDY    97  64  33 VRB5      29.81F HX  99
GRINNELL*      CLOUDY    96  58  28 E6        29.85R HX  95
KNOXVILLE *    CLOUDY    97  64  34 S6        29.82S HX  99
MARSHALLTOWN   MOSUNNY   96  63  33 E3        29.82S HX  97
NEWTON *       MOSUNNY   99  59  26 CALM      29.83R HX  98
PELLA *        MOSUNNY   98  61  29 SW3       29.84S HX  98
PERRY *        PTSUNNY   97  46  17 SW8       29.81S HX  93
$$

IAZ004>006-015-016-023>025-035-036-272300-
   NORTH CENTRAL IOWA

CITY           SKY/WX    TMP DP  RH WIND       PRES   REMARKS
ALGONA *       MOSUNNY   97  55  24 E6G13     29.81F HX  95
CLARION *      CLOUDY    99  52  20 NE8G15    29.81F HX  96
ESTHERVILLE    MOSUNNY   95  61  32 SE7       29.80F HX  95
FORT DODGE *   MOSUNNY   94  60  32 N6        29.81F HX  94
MASON CITY     SUNNY     98  55  23 E15       29.84F HX  96
FOREST CITY *  FAIR      95  54  24 SE9       29.83F HX  93
WEBSTER CITY * PTSUNNY   97  55  24 SE10G17   29.79F HX  95
IOWA FALLS *   FAIR      97  56  25 E8        29.85F HX  95
$$

IAZ007>011-017>019-026>030-037>042-050>054-066-272300-
   NORTHEAST IOWA

CITY           SKY/WX    TMP DP  RH WIND       PRES   REMARKS
CEDAR RAPIDS   FAIR      96  57  27 N3        29.83S HX  95
CHARLES CITY * FAIR      93  57  29 E10       29.86S HX  92
CLINTON *        N/A     86  71  60 W10       29.86R HX  91
DECORAH *      FAIR      91  57  31 E7        29.87S HX  90
DUBUQUE        FAIR      92  65  40 NE8       29.86S HX  94
MONTICELLO *   FAIR      95  54  24 CALM      29.84F HX  93
OELWEIN *      FAIR      93  59  31 E9        29.87R HX  92
WATERLOO       FAIR      93  58  30 E7        29.83S HX  92
$$

IAZ064-065-067-068-078-272300-
   EAST CENTRAL IOWA

CITY           SKY/WX    TMP DP  RH WIND       PRES   REMARKS
DAVENPORT        N/A     81  68  64 E9        29.87S HX  84
IOWA CITY      FAIR      93  66  40 E13G18    29.84S HX  96
MT. PLEASANT * CLOUDY    95  54  24 CALM      29.84S HX  93
MUSCATINE *    FAIR      82  72  69 CALM      29.84R HX  87
QUAD CITIES    LGT RAIN  79  71  76 N6        29.84R HX  82
$$

IAZ062-063-075>077-085>089-095>099-272300-
   SOUTHEAST IOWA

CITY           SKY/WX    TMP DP  RH WIND       PRES   REMARKS
BURLINGTON     CLOUDY    88  68  51 S7G18     29.84R HX  91
FAIRFIELD *    CLOUDY    95  63  34 W5        29.82F HX  96
FORT MADISON * CLOUDY    93  70  46 S7        29.85S HX  99
KEOKUK *       CLOUDY    86  73  66 S7        29.84S HX  93
OSKALOOSA *    FAIR      97  59  27 W9        29.83F HX  96
CENTERVILLE *    N/A     97  64  34 CALM      29.86S HX  99
OTTUMWA        MOSUNNY   96  60  30 SW6       29.83S HX  96
WASHINGTON *   CLOUDY    95  64  36 S6        29.84S HX  97
$$

ABBREVIATIONS USED IN REMARKS
   TC - TEMPERATURES IN CELSIUS
  WCI - WIND CHILL INDEX
   HX - HEAT INDEX
  VSB - VISIBILITY
$$




USA.gov is the U.S. government's official web portal to all federal, state and local government web resources and services.